Rbgn^[z[y[W
メイン
   新天体発見情報
     Comet P/2005 JD108 = 2020 H1 (Catalina-NEAT)
投稿するにはまず登録を

スレッド表示 | 新しいものから 前のトピック | 次のトピック | 下へ
投稿者 スレッド
佐藤裕久
投稿日時: 2020-5-19 22:17
モデレータ
登録日: 2005-6-12
居住地: 日本
投稿: 2505
オンライン
Comet P/2005 JD108 = 2020 H1 (Catalina-NEAT)

この彗星は、4月26日、D. Abreau (J04)が得た画像に基づいて、E. Schwabが検出し通報
した。この検出画像は、コマがなく、尾もなかった。
確認は、P. Breitenstein (F65)から4月27日に受理した。2.5"のコマとp.a.310°に5"の
尾があることが報告された。

検出位置は次のとおり。

     2020 UT             R.A. (2000) Decl.       Mag.   Observer
     Apr. 26.08455   16 13 38.54   -20 05 14.5   21.0   Abreu
          26.09207   16 13 38.33   -20 05 13.2   20.5     "
          26.09958   16 13 38.18   -20 05 12.8   20.4     "
          26.10709   16 13 38.00   -20 05 12.3   20.6     "
          27.42462   16 13 08.09   -20 03 16.2   20.1   Breitenstein
          27.42683   16 13 08.05   -20 03 16.2   20.6     "
          27.42904   16 13 07.98   -20 03 15.6   20.2     "

NK 3661とICQ's 2019 and 2020 Comet Handbookの中野主一氏の予報に対し、Delta(T)は、
-0.35 dayであった。

MPCの連結軌道要素、位置推算表は次のとおり、

Orbital elements:
    P/2005 JD108 (Catalina-NEAT)                                                
Epoch 2005 Aug. 18.0 TT = JDT 2453600.5                                         
T 2005 Aug. 10.49764 TT                                 Bell                    
q   4.0288628            (2000.0)            P               Q                  
n   0.06029556     Peri.   90.32580     +0.70143362     +0.71161659             
a   6.4408891      Node   224.30813     -0.67454310     +0.64472272             
e   0.3744865      Incl.    3.27529     -0.23017924     +0.27916742             
P  16.3                                                                         
From 187 observations 2005 May 12-2020 Apr. 27, mean residual 0".9.             
                                                                                
    P/2005 JD108 (Catalina-NEAT)                                                
Epoch 2021 Dec. 12.0 TT = JDT 2459560.5                                         
T 2021 Dec. 30.46223 TT                                 Bell                    
q   4.0648913            (2000.0)            P               Q                  
n   0.05865859     Peri.   89.85088     +0.68740006     +0.72520638             
a   6.5601681      Node   223.66286     -0.68701460     +0.63165617             
e   0.3803678      Incl.    3.27623     -0.23556760     +0.27401859             
P  16.8                                                                         
From 187 observations 2005 May 12-2020 Apr. 27, mean residual 0".9.             
                                                                                
    P/2005 JD108 (Catalina-NEAT)                                                
Epoch 2020 May 31.0 TT = JDT 2459000.5                                          
T 2021 Dec. 31.86830 TT                                 Bell                    
q   4.0645019            (2000.0)            P               Q                  
n   0.05918347     Peri.   89.85618     +0.68928380     +0.72340773             
a   6.5213237      Node   223.80703     -0.68539336     +0.63339180             
e   0.3767367      Incl.    3.28045     -0.23478455     +0.27476551             
P  16.7                                                                         
From 187 observations 2005 May 12-2020 Apr. 27, mean residual 0".9.             
                                                                                
Ephemeris:
Date    TT    R. A. (2000) Decl.     Delta      r    Elong.  Phase   m1
2020 03 29    16 19 29.9 -20 33 55   4.5468  5.1449   121.9     9.5  20.4
...
2020 04 13    16 17 35.1 -20 21 43   4.3242  5.1051   137.1     7.7  20.3
...
2020 04 21    16 15 24.3 -20 12 14   4.2237  5.0839   145.5     6.4  20.2
...
2020 04 27    16 13 17.8 -20 03 52   4.1583  5.0681   151.9     5.4  20.1
2020 04 28    16 12 54.6 -20 02 23   4.1483  5.0655   152.9     5.2  20.1
2020 04 29    16 12 30.8 -20 00 52   4.1385  5.0629   154.0     5.0  20.1
...
2020 05 05    16 09 57.4 -19 51 16   4.0855  5.0471   160.4     3.8  20.1
...
2020 05 13    16 06 09.3 -19 37 21   4.0305  5.0262   169.0     2.2  20.0
...
2020 05 28    15 58 23.9 -19 09 14   3.9775  4.9871   174.4     1.1  20.0

(MPEC 2020-H202、CBET 4758)

スレッド表示 | 新しいものから 前のトピック | 次のトピック | トップ

投稿するにはまず登録を
 
© 1999 Tsutomu Seki.